Time,TemperatureF,DewpointF,PressureIn,WindDirection,WindDirectionDegrees,WindSpeedMPH,WindSpeedGustMPH,Humidity,HourlyPrecipIn,Conditions,Clouds,dailyrainin,SoftwareType,DateUTC
2013-03-03 00:00:00,43.0,23.6,30.25,East,94,2.0,3.0,46,0.00,,,0.00,Wunderground v.1.15,2013-03-03 06:00:00,
2013-03-03 00:07:00,43.0,23.1,30.25,SE,140,2.0,4.0,45,0.00,,,0.00,Wunderground v.1.15,2013-03-03 06:07:00,
2013-03-03 00:13:00,43.0,23.1,30.25,SE,134,3.0,4.0,45,0.00,,,0.00,Wunderground v.1.15,2013-03-03 06:13:00,
2013-03-03 00:18:00,42.9,23.0,30.25,ESE,119,3.0,5.0,45,0.00,,,0.00,Wunderground v.1.15,2013-03-03 06:18:00,
2013-03-03 00:23:00,42.9,23.5,30.25,SE,144,3.0,4.0,46,0.00,,,0.00,Wunderground v.1.15,2013-03-03 06:23:00,
2013-03-03 00:29:00,42.7,23.3,30.25,SE,126,3.0,4.0,46,0.00,,,0.00,Wunderground v.1.15,2013-03-03 06:29:00,
2013-03-03 00:34:00,42.6,23.8,30.25,SE,125,3.0,3.0,47,0.00,,,0.00,Wunderground v.1.15,2013-03-03 06:34:00,
2013-03-03 00:40:00,42.3,23.0,30.24,SE,125,3.0,5.0,47,0.00,,,0.00,weatherlink.com 1.10,2013-03-03 06:40:00,
2013-03-03 00:45:00,42.2,23.4,30.24,ESE,109,2.0,5.0,47,0.00,,,0.00,Wunderground v.1.15,2013-03-03 06:45:00,
2013-03-03 00:50:00,42.1,23.3,30.24,SSE,159,2.0,2.0,47,0.00,,,0.00,Wunderground v.1.15,2013-03-03 06:50:00,
2013-03-03 00:55:00,42.1,23.8,30.24,SE,127,2.0,5.0,48,0.00,,,0.00,Wunderground v.1.15,2013-03-03 06:55:00,
2013-03-03 01:00:00,42.0,23.2,30.24,ESE,123,3.0,5.0,47,0.00,,,0.00,Wunderground v.1.15,2013-03-03 07:00:00,
2013-03-03 01:06:00,42.0,23.7,30.24,ESE,119,3.0,7.0,48,0.00,,,0.00,Wunderground v.1.15,2013-03-03 07:06:00,
2013-03-03 01:11:00,42.0,24.2,30.24,SE,140,3.0,7.0,49,0.00,,,0.00,Wunderground v.1.15,2013-03-03 07:11:00,
2013-03-03 01:16:00,42.0,24.2,30.24,ESE,123,3.0,7.0,49,0.00,,,0.00,Wunderground v.1.15,2013-03-03 07:16:00,
2013-03-03 01:22:00,42.1,24.3,30.24,SSE,167,2.0,3.0,49,0.00,,,0.00,Wunderground v.1.15,2013-03-03 07:22:00,
2013-03-03 01:27:00,42.1,23.8,30.25,SSE,147,1.0,3.0,48,0.00,,,0.00,Wunderground v.1.15,2013-03-03 07:27:00,
2013-03-03 01:33:00,42.0,24.2,30.25,South,171,1.0,2.0,49,0.00,,,0.00,Wunderground v.1.15,2013-03-03 07:33:00,
2013-03-03 01:39:00,41.8,24.5,30.24,South,171,1.0,2.0,50,0.00,,,0.00,Wunderground v.1.15,2013-03-03 07:39:00,
2013-03-03 01:44:00,41.6,24.3,30.24,South,171,1.0,2.0,50,0.00,,,0.00,Wunderground v.1.15,2013-03-03 07:44:00,
2013-03-03 01:50:00,41.5,25.2,30.24,South,171,1.0,1.0,52,0.00,,,0.00,Wunderground v.1.15,2013-03-03 07:50:00,
2013-03-03 01:55:00,41.3,26.0,30.24,South,178,2.0,3.0,54,0.00,,,0.00,weatherlink.com 1.10,2013-03-03 07:55:00,
2013-03-03 02:01:00,41.1,26.1,30.25,South,189,1.0,3.0,55,0.00,,,0.00,Wunderground v.1.15,2013-03-03 08:01:00,
2013-03-03 02:07:00,40.9,25.5,30.25,SSW,194,2.0,3.0,54,0.00,,,0.00,Wunderground v.1.15,2013-03-03 08:07:00,
2013-03-03 02:13:00,40.6,26.1,30.24,South,180,1.0,3.0,56,0.00,,,0.00,Wunderground v.1.15,2013-03-03 08:13:00,
2013-03-03 02:19:00,40.3,25.8,30.24,South,180,1.0,3.0,56,0.00,,,0.00,Wunderground v.1.15,2013-03-03 08:19:00,
2013-03-03 02:25:00,40.0,24.7,30.24,South,186,2.0,2.0,54,0.00,,,0.00,Wunderground v.1.15,2013-03-03 08:25:00,
2013-03-03 02:30:00,39.8,24.5,30.24,South,185,2.0,2.0,54,0.00,,,0.00,Wunderground v.1.15,2013-03-03 08:30:00,
2013-03-03 02:36:00,39.7,24.4,30.24,South,186,1.0,3.0,54,0.00,,,0.00,Wunderground v.1.15,2013-03-03 08:36:00,
2013-03-03 02:42:00,39.6,24.0,30.24,South,184,3.0,4.0,55,0.00,,,0.00,weatherlink.com 1.10,2013-03-03 08:42:00,
2013-03-03 02:47:00,39.4,25.4,30.24,South,184,1.0,2.0,57,0.00,,,0.00,Wunderground v.1.15,2013-03-03 08:47:00,
2013-03-03 02:52:00,39.2,26.1,30.23,South,184,1.0,3.0,59,0.00,,,0.00,Wunderground v.1.15,2013-03-03 08:52:00,
2013-03-03 02:58:00,39.0,26.3,30.23,South,178,2.0,3.0,60,0.00,,,0.00,Wunderground v.1.15,2013-03-03 08:58:00,
2013-03-03 03:04:00,38.9,25.8,30.23,South,178,2.0,2.0,59,0.00,,,0.00,Wunderground v.1.15,2013-03-03 09:04:00,
2013-03-03 03:10:00,38.7,25.6,30.23,South,178,1.0,1.0,59,0.00,,,0.00,Wunderground v.1.15,2013-03-03 09:10:00,
2013-03-03 03:15:00,38.6,25.1,30.23,South,186,1.0,2.0,58,0.00,,,0.00,Wunderground v.1.15,2013-03-03 09:15:00,
2013-03-03 03:20:00,38.4,25.3,30.22,South,173,1.0,2.0,59,0.00,,,0.00,Wunderground v.1.15,2013-03-03 09:20:00,
2013-03-03 03:25:00,38.3,25.2,30.23,South,173,1.0,3.0,59,0.00,,,0.00,Wunderground v.1.15,2013-03-03 09:25:00,
2013-03-03 03:31:00,38.1,25.0,30.23,South,179,1.0,2.0,59,0.00,,,0.00,Wunderground v.1.15,2013-03-03 09:31:00,
2013-03-03 03:36:00,38.1,25.8,30.23,South,178,1.0,3.0,61,0.00,,,0.00,Wunderground v.1.15,2013-03-03 09:36:00,
2013-03-03 03:41:00,38.1,25.8,30.23,South,178,1.0,2.0,61,0.00,,,0.00,Wunderground v.1.15,2013-03-03 09:41:00,
2013-03-03 03:47:00,38.1,25.8,30.22,South,175,2.0,4.0,61,0.00,,,0.00,Wunderground v.1.15,2013-03-03 09:47:00,
2013-03-03 03:53:00,38.0,25.7,30.22,South,173,2.0,4.0,61,0.00,,,0.00,Wunderground v.1.15,2013-03-03 09:53:00,
2013-03-03 03:59:00,37.9,26.0,30.22,South,173,2.0,4.0,62,0.00,,,0.00,Wunderground v.1.15,2013-03-03 09:59:00,
2013-03-03 04:04:00,37.8,26.3,30.22,South,172,1.0,2.0,63,0.00,,,0.00,Wunderground v.1.15,2013-03-03 10:04:00,
2013-03-03 04:10:00,37.8,26.3,30.21,SSE,167,1.0,5.0,63,0.00,,,0.00,Wunderground v.1.15,2013-03-03 10:10:00,
2013-03-03 04:16:00,37.9,26.0,30.21,South,184,3.0,5.0,62,0.00,,,0.00,Wunderground v.1.15,2013-03-03 10:16:00,
2013-03-03 04:21:00,38.1,26.2,30.21,South,176,3.0,3.0,62,0.00,,,0.00,Wunderground v.1.15,2013-03-03 10:21:00,
2013-03-03 04:27:00,38.3,26.0,30.21,South,188,2.0,3.0,61,0.00,,,0.00,Wunderground v.1.15,2013-03-03 10:27:00,
2013-03-03 04:32:00,38.5,25.8,30.21,South,174,2.0,4.0,60,0.00,,,0.00,Wunderground v.1.15,2013-03-03 10:32:00,
2013-03-03 04:37:00,38.6,25.9,30.20,SSE,157,3.0,4.0,60,0.00,,,0.00,Wunderground v.1.15,2013-03-03 10:37:00,
2013-03-03 04:43:00,38.7,25.6,30.20,South,184,3.0,4.0,59,0.00,,,0.00,Wunderground v.1.15,2013-03-03 10:43:00,
2013-03-03 04:49:00,38.9,25.8,30.20,SSW,204,3.0,4.0,59,0.00,,,0.00,Wunderground v.1.15,2013-03-03 10:49:00,
2013-03-03 04:54:00,39.2,25.6,30.20,South,178,3.0,5.0,58,0.00,,,0.00,Wunderground v.1.15,2013-03-03 10:54:00,
2013-03-03 04:59:00,39.3,26.2,30.20,South,185,3.0,5.0,59,0.00,,,0.00,Wunderground v.1.15,2013-03-03 10:59:00,
2013-03-03 05:05:00,39.4,26.2,30.21,South,190,3.0,6.0,59,0.00,,,0.00,Wunderground v.1.15,2013-03-03 11:05:00,
2013-03-03 05:11:00,39.3,26.6,30.21,SSE,155,3.0,3.0,60,0.00,,,0.00,Wunderground v.1.15,2013-03-03 11:11:00,
2013-03-03 05:16:00,39.2,27.3,30.21,South,183,3.0,7.0,62,0.00,,,0.00,Wunderground v.1.15,2013-03-03 11:16:00,
2013-03-03 05:22:00,39.1,26.8,30.21,South,190,4.0,4.0,61,0.00,,,0.00,Wunderground v.1.15,2013-03-03 11:22:00,
2013-03-03 05:27:00,39.1,26.0,30.21,SSE,162,1.0,7.0,60,0.00,,,0.00,weatherlink.com 1.10,2013-03-03 11:27:00,
2013-03-03 05:32:00,38.9,26.2,30.21,South,184,3.0,4.0,60,0.00,,,0.00,Wunderground v.1.15,2013-03-03 11:32:00,
2013-03-03 05:38:00,38.7,26.0,30.21,SSW,197,3.0,5.0,60,0.00,,,0.00,Wunderground v.1.15,2013-03-03 11:38:00,
2013-03-03 05:43:00,38.3,26.0,30.21,SSE,155,2.0,6.0,62,0.00,,,0.00,weatherlink.com 1.10,2013-03-03 11:43:00,
2013-03-03 05:49:00,37.9,25.6,30.21,SSE,152,2.0,4.0,61,0.00,,,0.00,Wunderground v.1.15,2013-03-03 11:49:00,
2013-03-03 05:54:00,37.7,25.8,30.21,South,175,2.0,6.0,62,0.00,,,0.00,Wunderground v.1.15,2013-03-03 11:54:00,
2013-03-03 06:00:00,37.5,25.7,30.21,SSE,154,2.0,2.0,62,0.00,,,0.00,Wunderground v.1.15,2013-03-03 12:00:00,
2013-03-03 06:06:00,37.4,25.9,30.21,SE,138,3.0,5.0,63,0.00,,,0.00,Wunderground v.1.15,2013-03-03 12:06:00,
2013-03-03 06:12:00,37.3,26.0,30.21,SSW,203,4.0,8.0,63,0.00,,,0.00,weatherlink.com 1.10,2013-03-03 12:12:00,
2013-03-03 06:17:00,37.2,26.1,30.21,South,190,3.0,5.0,64,0.00,,,0.00,Wunderground v.1.15,2013-03-03 12:17:00,
2013-03-03 06:22:00,37.2,26.1,30.21,SSW,192,3.0,7.0,64,0.00,,,0.00,Wunderground v.1.15,2013-03-03 12:22:00,
2013-03-03 06:27:00,37.3,25.8,30.21,SSE,160,4.0,7.0,63,0.00,,,0.00,Wunderground v.1.15,2013-03-03 12:27:00,
2013-03-03 06:33:00,37.3,26.2,30.21,SSE,161,4.0,7.0,64,0.00,,,0.00,Wunderground v.1.15,2013-03-03 12:33:00,
2013-03-03 06:42:00,37.2,26.0,30.21,SW,215,4.0,7.0,63,0.00,,,0.00,weatherlink.com 1.10,2013-03-03 12:42:00,
2013-03-03 06:57:00,36.9,26.0,30.20,South,169,6.0,8.0,64,0.00,,,0.00,weatherlink.com 1.10,2013-03-03 12:57:00,
2013-03-03 07:12:00,36.7,26.0,30.20,South,171,3.0,9.0,65,0.00,,,0.00,weatherlink.com 1.10,2013-03-03 13:12:00,
2013-03-03 07:27:00,37.0,26.0,30.20,SSW,197,4.0,8.0,64,0.00,,,0.00,weatherlink.com 1.10,2013-03-03 13:27:00,
2013-03-03 07:42:00,38.0,26.0,30.20,SSW,194,7.0,9.0,62,0.00,,,0.00,weatherlink.com 1.10,2013-03-03 13:42:00,
2013-03-03 07:57:00,39.5,26.0,30.20,South,175,5.0,9.0,60,0.00,,,0.00,weatherlink.com 1.10,2013-03-03 13:57:00,
2013-03-03 08:12:00,40.8,26.0,30.19,South,178,9.0,10.0,57,0.00,,,0.00,weatherlink.com 1.10,2013-03-03 14:12:00,
2013-03-03 08:27:00,42.2,27.0,30.20,SSW,205,6.0,10.0,55,0.00,,,0.00,weatherlink.com 1.10,2013-03-03 14:27:00,
2013-03-03 08:42:00,44.0,28.0,30.20,South,180,4.0,10.0,54,0.00,,,0.00,weatherlink.com 1.10,2013-03-03 14:42:00,
2013-03-03 08:57:00,45.7,29.0,30.19,South,188,5.0,12.0,52,0.00,,,0.00,weatherlink.com 1.10,2013-03-03 14:57:00,
2013-03-03 09:12:00,47.6,28.0,30.18,SSW,198,6.0,13.0,46,0.00,,,0.00,weatherlink.com 1.10,2013-03-03 15:12:00,
2013-03-03 09:27:00,49.4,28.0,30.18,SSW,210,6.0,14.0,44,0.00,,,0.00,weatherlink.com 1.10,2013-03-03 15:27:00,
2013-03-03 09:42:00,51.3,28.0,30.18,SSW,211,7.0,13.0,41,0.00,,,0.00,weatherlink.com 1.10,2013-03-03 15:42:00,
2013-03-03 09:57:00,52.7,29.0,30.17,SSW,207,6.0,14.0,41,0.00,,,0.00,weatherlink.com 1.10,2013-03-03 15:57:00,
2013-03-03 10:12:00,54.1,31.0,30.16,SSW,209,8.0,17.0,41,0.00,,,0.00,weatherlink.com 1.10,2013-03-03 16:12:00,
2013-03-03 10:27:00,55.4,31.0,30.16,SSW,201,5.0,13.0,40,0.00,,,0.00,weatherlink.com 1.10,2013-03-03 16:27:00,
2013-03-03 10:43:00,56.4,31.0,30.15,SSW,204,7.0,20.0,38,0.00,,,0.00,weatherlink.com 1.10,2013-03-03 16:43:00,
2013-03-03 10:58:00,57.4,32.0,30.14,SSW,194,8.0,15.0,39,0.00,,,0.00,weatherlink.com 1.10,2013-03-03 16:58:00,
2013-03-03 11:12:00,58.5,31.6,30.13,SSW,208,7.0,7.0,36,0.00,,,0.00,Wunderground v.1.15,2013-03-03 17:12:00,
2013-03-03 11:18:00,58.9,32.7,30.12,SW,215,8.0,12.0,37,0.00,,,0.00,Wunderground v.1.15,2013-03-03 17:18:00,
2013-03-03 11:23:00,59.2,31.5,30.12,SSW,205,8.0,9.0,35,0.00,,,0.00,Wunderground v.1.15,2013-03-03 17:23:00,
2013-03-03 11:28:00,59.5,31.8,30.12,South,188,8.0,9.0,35,0.00,,,0.00,Wunderground v.1.15,2013-03-03 17:28:00,
2013-03-03 11:34:00,59.8,32.1,30.11,SSW,205,8.0,8.0,35,0.00,,,0.00,Wunderground v.1.15,2013-03-03 17:34:00,
2013-03-03 11:40:00,60.1,33.0,30.11,SSW,202,7.0,9.0,36,0.00,,,0.00,Wunderground v.1.15,2013-03-03 17:40:00,
2013-03-03 11:46:00,60.4,33.3,30.11,South,184,7.0,8.0,36,0.00,,,0.00,Wunderground v.1.15,2013-03-03 17:46:00,
2013-03-03 11:51:00,61.0,33.1,30.10,SW,216,7.0,9.0,35,0.00,,,0.00,Wunderground v.1.15,2013-03-03 17:51:00,
2013-03-03 11:56:00,61.1,33.2,30.09,South,180,7.0,12.0,35,0.00,,,0.00,Wunderground v.1.15,2013-03-03 17:56:00,
2013-03-03 12:01:00,62.0,34.7,30.09,SSW,195,6.0,7.0,36,0.00,,,0.00,Wunderground v.1.15,2013-03-03 18:01:00,
2013-03-03 12:06:00,62.1,33.4,30.09,SSW,201,6.0,8.0,34,0.00,,,0.00,Wunderground v.1.15,2013-03-03 18:06:00,
2013-03-03 12:11:00,62.0,32.5,30.08,SSW,204,7.0,9.0,33,0.00,,,0.00,Wunderground v.1.15,2013-03-03 18:11:00,
2013-03-03 12:16:00,62.3,33.6,30.08,South,176,7.0,10.0,34,0.00,,,0.00,Wunderground v.1.15,2013-03-03 18:16:00,
2013-03-03 12:22:00,62.5,34.5,30.08,SW,225,7.0,9.0,35,0.00,,,0.00,Wunderground v.1.15,2013-03-03 18:22:00,
2013-03-03 12:27:00,62.4,35.1,30.08,SSW,202,8.0,9.0,36,0.00,,,0.00,Wunderground v.1.15,2013-03-03 18:27:00,
2013-03-03 12:33:00,62.9,34.1,30.07,South,185,7.0,7.0,34,0.00,,,0.00,Wunderground v.1.15,2013-03-03 18:33:00,
2013-03-03 12:39:00,63.3,35.2,30.07,SSW,202,6.0,9.0,35,0.00,,,0.00,Wunderground v.1.15,2013-03-03 18:39:00,
2013-03-03 12:44:00,63.7,33.3,30.07,SSW,206,7.0,7.0,32,0.00,,,0.00,Wunderground v.1.15,2013-03-03 18:44:00,
2013-03-03 12:49:00,63.9,34.2,30.06,SW,217,7.0,9.0,33,0.00,,,0.00,Wunderground v.1.15,2013-03-03 18:49:00,
2013-03-03 12:55:00,64.3,35.3,30.06,SSW,194,6.0,16.0,34,0.00,,,0.00,Wunderground v.1.15,2013-03-03 18:55:00,
2013-03-03 13:00:00,64.3,35.3,30.06,SSW,205,6.0,9.0,34,0.00,,,0.00,Wunderground v.1.15,2013-03-03 19:00:00,
2013-03-03 13:06:00,64.6,34.1,30.05,SSW,206,7.0,11.0,32,0.00,,,0.00,Wunderground v.1.15,2013-03-03 19:06:00,
2013-03-03 13:12:00,65.3,35.4,30.05,SSW,207,7.0,7.0,33,0.00,,,0.00,Wunderground v.1.15,2013-03-03 19:12:00,
2013-03-03 13:18:00,65.2,36.1,30.04,SW,227,6.0,8.0,34,0.00,,,0.00,Wunderground v.1.15,2013-03-03 19:18:00,
2013-03-03 13:24:00,65.4,34.0,30.03,South,191,6.0,10.0,31,0.00,,,0.00,Wunderground v.1.15,2013-03-03 19:24:00,
2013-03-03 13:29:00,65.6,34.1,30.02,SW,234,7.0,10.0,31,0.00,,,0.00,Wunderground v.1.15,2013-03-03 19:29:00,
2013-03-03 13:34:00,64.7,35.7,30.02,SSW,200,7.0,9.0,34,0.00,,,0.00,Wunderground v.1.15,2013-03-03 19:34:00,
2013-03-03 13:39:00,65.1,36.8,30.02,SSW,192,6.0,7.0,35,0.00,,,0.00,Wunderground v.1.15,2013-03-03 19:39:00,
2013-03-03 13:45:00,66.5,37.0,30.01,SSW,201,7.0,11.0,34,0.00,,,0.00,weatherlink.com 1.10,2013-03-03 19:45:00,
2013-03-03 13:50:00,66.6,36.6,30.01,SSW,192,7.0,8.0,33,0.00,,,0.00,Wunderground v.1.15,2013-03-03 19:50:00,
2013-03-03 13:57:00,67.2,36.3,30.00,South,182,7.0,11.0,32,0.00,,,0.00,Wunderground v.1.15,2013-03-03 19:57:00,
2013-03-03 14:02:00,67.5,36.6,30.00,SSW,206,7.0,7.0,32,0.00,,,0.00,Wunderground v.1.15,2013-03-03 20:02:00,
2013-03-03 14:08:00,66.6,36.6,29.99,SSW,213,7.0,12.0,33,0.00,,,0.00,Wunderground v.1.15,2013-03-03 20:08:00,
2013-03-03 14:14:00,66.4,36.0,29.98,South,186,5.0,15.0,33,0.00,,,0.00,weatherlink.com 1.10,2013-03-03 20:14:00,
2013-03-03 14:19:00,66.7,35.1,29.99,SSW,195,7.0,11.0,31,0.00,,,0.00,Wunderground v.1.15,2013-03-03 20:19:00,
2013-03-03 14:24:00,66.5,36.5,29.98,SW,216,7.0,7.0,33,0.00,,,0.00,Wunderground v.1.15,2013-03-03 20:24:00,
2013-03-03 14:30:00,67.2,35.5,29.97,SSW,207,7.0,7.0,31,0.00,,,0.00,Wunderground v.1.15,2013-03-03 20:30:00,
2013-03-03 14:35:00,67.0,36.9,29.97,SSW,197,7.0,9.0,33,0.00,,,0.00,Wunderground v.1.15,2013-03-03 20:35:00,
2013-03-03 14:40:00,66.9,36.8,29.97,SSE,167,7.0,7.0,33,0.00,,,0.00,Wunderground v.1.15,2013-03-03 20:40:00,
2013-03-03 14:45:00,67.2,36.3,29.96,SE,142,7.0,15.0,32,0.00,,,0.00,Wunderground v.1.15,2013-03-03 20:45:00,
2013-03-03 14:51:00,66.5,36.5,29.96,South,173,7.0,10.0,33,0.00,,,0.00,Wunderground v.1.15,2013-03-03 20:51:00,
2013-03-03 14:56:00,67.1,34.6,29.96,SW,215,7.0,16.0,30,0.00,,,0.00,Wunderground v.1.15,2013-03-03 20:56:00,
2013-03-03 15:02:00,66.5,34.9,29.96,South,175,9.0,16.0,31,0.00,,,0.00,Wunderground v.1.15,2013-03-03 21:02:00,
2013-03-03 15:07:00,66.5,34.9,29.95,South,170,9.0,16.0,31,0.00,,,0.00,Wunderground v.1.15,2013-03-03 21:07:00,
2013-03-03 15:12:00,67.7,35.1,29.95,SE,142,8.0,10.0,30,0.00,,,0.00,Wunderground v.1.15,2013-03-03 21:12:00,
2013-03-03 15:17:00,67.2,36.3,29.95,SSW,212,8.0,11.0,32,0.00,,,0.00,Wunderground v.1.15,2013-03-03 21:17:00,
2013-03-03 15:23:00,67.9,36.1,29.94,SSW,213,8.0,9.0,31,0.00,,,0.00,Wunderground v.1.15,2013-03-03 21:23:00,
2013-03-03 15:29:00,68.1,35.5,29.94,South,184,8.0,12.0,30,0.00,,,0.00,Wunderground v.1.15,2013-03-03 21:29:00,
2013-03-03 15:34:00,68.7,35.1,29.94,SW,215,8.0,9.0,29,0.00,,,0.00,Wunderground v.1.15,2013-03-03 21:34:00,
2013-03-03 15:39:00,68.9,35.3,29.93,SSE,151,9.0,16.0,29,0.00,,,0.00,Wunderground v.1.15,2013-03-03 21:39:00,
2013-03-03 15:44:00,68.8,35.2,29.93,SSW,208,9.0,14.0,29,0.00,,,0.00,Wunderground v.1.15,2013-03-03 21:44:00,
2013-03-03 15:49:00,68.9,36.2,29.92,SSW,205,9.0,14.0,30,0.00,,,0.00,Wunderground v.1.15,2013-03-03 21:49:00,
2013-03-03 15:55:00,69.1,36.3,29.92,SSE,155,8.0,15.0,30,0.00,,,0.00,Wunderground v.1.15,2013-03-03 21:55:00,
2013-03-03 16:00:00,69.0,35.4,29.92,SE,140,8.0,8.0,29,0.00,,,0.00,Wunderground v.1.15,2013-03-03 22:00:00,
2013-03-03 16:06:00,69.0,35.4,29.92,SSW,198,10.0,13.0,29,0.00,,,0.00,Wunderground v.1.15,2013-03-03 22:06:00,
2013-03-03 16:12:00,68.6,35.9,29.92,SSW,212,10.0,11.0,30,0.00,,,0.00,Wunderground v.1.15,2013-03-03 22:12:00,
2013-03-03 16:17:00,68.4,35.7,29.92,South,188,9.0,12.0,30,0.00,,,0.00,Wunderground v.1.15,2013-03-03 22:17:00,
2013-03-03 16:23:00,68.6,35.9,29.91,South,172,9.0,17.0,30,0.00,,,0.00,Wunderground v.1.15,2013-03-03 22:23:00,
2013-03-03 16:28:00,68.5,35.8,29.91,SSE,154,9.0,17.0,30,0.00,,,0.00,Wunderground v.1.15,2013-03-03 22:28:00,
2013-03-03 16:33:00,68.6,36.7,29.91,SSW,198,8.0,9.0,31,0.00,,,0.00,Wunderground v.1.15,2013-03-03 22:33:00,
2013-03-03 16:39:00,68.6,35.1,29.91,SSW,202,8.0,14.0,29,0.00,,,0.00,Wunderground v.1.15,2013-03-03 22:39:00,
2013-03-03 16:44:00,68.5,35.8,29.91,SSW,210,10.0,15.0,30,0.00,,,0.00,Wunderground v.1.15,2013-03-03 22:44:00,
2013-03-03 16:50:00,67.9,36.1,29.90,SSE,161,9.0,16.0,31,0.00,,,0.00,Wunderground v.1.15,2013-03-03 22:50:00,
2013-03-03 16:56:00,67.5,35.8,29.90,SSW,203,10.0,19.0,31,0.00,,,0.00,Wunderground v.1.15,2013-03-03 22:56:00,
2013-03-03 17:02:00,67.2,36.3,29.90,South,175,9.0,12.0,32,0.00,,,0.00,Wunderground v.1.15,2013-03-03 23:02:00,
2013-03-03 17:08:00,67.6,35.9,29.90,South,175,8.0,13.0,31,0.00,,,0.00,Wunderground v.1.15,2013-03-03 23:08:00,
2013-03-03 17:13:00,67.4,36.5,29.90,SSW,196,8.0,14.0,32,0.00,,,0.00,Wunderground v.1.15,2013-03-03 23:13:00,
2013-03-03 17:18:00,67.1,36.2,29.90,SSW,202,8.0,14.0,32,0.00,,,0.00,Wunderground v.1.15,2013-03-03 23:18:00,
2013-03-03 17:23:00,67.2,36.3,29.90,South,186,8.0,12.0,32,0.00,,,0.00,Wunderground v.1.15,2013-03-03 23:23:00,
2013-03-03 17:28:00,67.2,36.3,29.89,South,180,8.0,12.0,32,0.00,,,0.00,Wunderground v.1.15,2013-03-03 23:28:00,
2013-03-03 17:33:00,67.0,36.9,29.89,South,184,7.0,9.0,33,0.00,,,0.00,Wunderground v.1.15,2013-03-03 23:33:00,
2013-03-03 17:38:00,66.7,37.4,29.89,South,181,7.0,10.0,34,0.00,,,0.00,Wunderground v.1.15,2013-03-03 23:38:00,
2013-03-03 17:44:00,66.2,36.2,29.89,South,190,7.0,14.0,33,0.00,,,0.00,Wunderground v.1.15,2013-03-03 23:44:00,
2013-03-03 17:50:00,65.9,36.7,29.89,South,190,8.0,8.0,34,0.00,,,0.00,Wunderground v.1.15,2013-03-03 23:50:00,
2013-03-03 17:55:00,65.7,36.5,29.89,SSW,198,8.0,19.0,34,0.00,,,0.00,Wunderground v.1.15,2013-03-03 23:55:00,
2013-03-03 18:00:00,65.5,37.1,29.89,South,176,7.0,10.0,35,0.00,,,0.00,Wunderground v.1.15,2013-03-04 00:00:00,
2013-03-03 18:06:00,65.3,36.2,29.88,SSW,204,7.0,11.0,34,0.00,,,0.00,Wunderground v.1.15,2013-03-04 00:06:00,
2013-03-03 18:11:00,65.2,36.8,29.88,SSW,205,7.0,10.0,35,0.00,,,0.00,Wunderground v.1.15,2013-03-04 00:11:00,
2013-03-03 18:16:00,64.9,35.8,29.88,SE,128,7.0,11.0,34,0.00,,,0.00,Wunderground v.1.15,2013-03-04 00:16:00,
2013-03-03 18:21:00,64.8,35.8,29.88,SSE,168,8.0,10.0,34,0.00,,,0.00,Wunderground v.1.15,2013-03-04 00:21:00,
2013-03-03 18:26:00,64.7,35.7,29.87,SSW,204,9.0,10.0,34,0.00,,,0.00,Wunderground v.1.15,2013-03-04 00:26:00,
2013-03-03 18:31:00,64.5,35.5,29.87,South,190,9.0,11.0,34,0.00,,,0.00,Wunderground v.1.15,2013-03-04 00:31:00,
2013-03-03 18:36:00,64.4,36.1,29.87,SSE,148,9.0,15.0,35,0.00,,,0.00,Wunderground v.1.15,2013-03-04 00:36:00,
2013-03-03 18:41:00,64.3,36.0,29.86,South,189,10.0,14.0,35,0.00,,,0.00,Wunderground v.1.15,2013-03-04 00:41:00,
2013-03-03 18:46:00,64.2,36.0,29.86,SSE,155,10.0,14.0,35,0.00,,,0.00,Wunderground v.1.15,2013-03-04 00:46:00,
2013-03-03 18:52:00,63.9,35.7,29.86,SE,141,9.0,19.0,35,0.00,,,0.00,Wunderground v.1.15,2013-03-04 00:52:00,
2013-03-03 18:57:00,63.6,35.4,29.86,South,190,9.0,19.0,35,0.00,,,0.00,Wunderground v.1.15,2013-03-04 00:57:00,
2013-03-03 19:03:00,63.4,35.2,29.86,SSW,202,9.0,15.0,35,0.00,,,0.00,Wunderground v.1.15,2013-03-04 01:03:00,
2013-03-03 19:09:00,63.2,35.8,29.85,SSE,150,9.0,15.0,36,0.00,,,0.00,Wunderground v.1.15,2013-03-04 01:09:00,
2013-03-03 19:15:00,62.9,35.0,29.86,ESE,115,9.0,20.0,36,0.00,,,0.00,weatherlink.com 1.10,2013-03-04 01:15:00,
2013-03-03 19:20:00,62.8,35.4,29.85,SE,140,10.0,11.0,36,0.00,,,0.00,Wunderground v.1.15,2013-03-04 01:20:00,
2013-03-03 19:25:00,62.7,35.3,29.85,South,182,10.0,11.0,36,0.00,,,0.00,Wunderground v.1.15,2013-03-04 01:25:00,
2013-03-03 19:30:00,62.7,36.0,29.84,SE,136,9.0,20.0,37,0.00,,,0.00,weatherlink.com 1.10,2013-03-04 01:30:00,
2013-03-03 19:36:00,62.5,35.9,29.84,SSW,202,11.0,17.0,37,0.00,,,0.00,Wunderground v.1.15,2013-03-04 01:36:00,
2013-03-03 19:42:00,62.3,35.7,29.84,South,178,11.0,13.0,37,0.00,,,0.00,Wunderground v.1.15,2013-03-04 01:42:00,
2013-03-03 19:47:00,62.0,36.1,29.84,SW,218,10.0,13.0,38,0.00,,,0.00,Wunderground v.1.15,2013-03-04 01:47:00,
2013-03-03 19:52:00,61.9,36.0,29.84,SE,138,10.0,14.0,38,0.00,,,0.00,Wunderground v.1.15,2013-03-04 01:52:00,
2013-03-03 19:58:00,61.8,35.9,29.84,South,180,10.0,16.0,38,0.00,,,0.00,Wunderground v.1.15,2013-03-04 01:58:00,
2013-03-03 20:03:00,61.7,36.5,29.84,South,172,11.0,22.0,39,0.00,,,0.00,Wunderground v.1.15,2013-03-04 02:03:00,
2013-03-03 20:08:00,61.6,36.4,29.84,SSE,163,10.0,22.0,39,0.00,,,0.00,Wunderground v.1.15,2013-03-04 02:08:00,
2013-03-03 20:13:00,61.6,36.4,29.84,South,170,11.0,18.0,39,0.00,,,0.00,Wunderground v.1.15,2013-03-04 02:13:00,
2013-03-03 20:18:00,61.6,37.0,29.84,South,171,11.0,18.0,40,0.00,,,0.00,Wunderground v.1.15,2013-03-04 02:18:00,
2013-03-03 20:24:00,61.5,36.9,29.84,South,181,10.0,22.0,40,0.00,,,0.00,Wunderground v.1.15,2013-03-04 02:24:00,
2013-03-03 20:30:00,61.5,37.0,29.84,South,172,14.0,22.0,40,0.00,,,0.00,weatherlink.com 1.10,2013-03-04 02:30:00,
2013-03-03 20:36:00,61.4,36.8,29.84,SSW,210,10.0,12.0,40,0.00,,,0.00,Wunderground v.1.15,2013-03-04 02:36:00,
2013-03-03 20:41:00,61.3,36.8,29.84,South,170,9.0,12.0,40,0.00,,,0.00,Wunderground v.1.15,2013-03-04 02:41:00,
2013-03-03 20:46:00,61.3,37.4,29.84,South,169,9.0,14.0,41,0.00,,,0.00,Wunderground v.1.15,2013-03-04 02:46:00,
2013-03-03 20:52:00,61.4,37.5,29.84,South,170,10.0,18.0,41,0.00,,,0.00,Wunderground v.1.15,2013-03-04 02:52:00,
2013-03-03 20:57:00,61.3,37.4,29.84,South,184,9.0,18.0,41,0.00,,,0.00,Wunderground v.1.15,2013-03-04 02:57:00,
2013-03-03 21:03:00,61.3,37.4,29.85,SW,235,8.0,10.0,41,0.00,,,0.00,Wunderground v.1.15,2013-03-04 03:03:00,
2013-03-03 21:08:00,61.3,37.4,29.85,SSW,207,9.0,13.0,41,0.00,,,0.00,Wunderground v.1.15,2013-03-04 03:08:00,
2013-03-03 21:13:00,61.3,38.0,29.85,SSW,209,8.0,15.0,42,0.00,,,0.00,Wunderground v.1.15,2013-03-04 03:13:00,
2013-03-03 21:19:00,61.2,37.9,29.84,SSE,148,8.0,15.0,42,0.00,,,0.00,Wunderground v.1.15,2013-03-04 03:19:00,
2013-03-03 21:26:00,61.2,37.9,29.84,SSW,205,8.0,8.0,42,0.00,,,0.00,Wunderground v.1.15,2013-03-04 03:26:00,
2013-03-03 21:32:00,61.2,38.5,29.85,SSE,160,8.0,11.0,43,0.00,,,0.00,Wunderground v.1.15,2013-03-04 03:32:00,
2013-03-03 21:38:00,61.1,38.4,29.84,SSW,207,8.0,16.0,43,0.00,,,0.00,Wunderground v.1.15,2013-03-04 03:38:00,
2013-03-03 21:43:00,61.0,38.3,29.84,SSE,158,8.0,11.0,43,0.00,,,0.00,Wunderground v.1.15,2013-03-04 03:43:00,
2013-03-03 21:49:00,60.8,38.7,29.84,SE,126,9.0,11.0,44,0.00,,,0.00,Wunderground v.1.15,2013-03-04 03:49:00,
2013-03-03 21:54:00,60.7,39.2,29.84,South,180,8.0,18.0,45,0.00,,,0.00,Wunderground v.1.15,2013-03-04 03:54:00,
2013-03-03 21:59:00,60.6,39.7,29.83,ESE,123,8.0,18.0,46,0.00,,,0.00,Wunderground v.1.15,2013-03-04 03:59:00,
2013-03-03 22:04:00,60.6,39.7,29.83,SSE,167,10.0,11.0,46,0.00,,,0.00,Wunderground v.1.15,2013-03-04 04:04:00,
2013-03-03 22:09:00,60.6,40.2,29.83,SSE,158,9.0,11.0,47,0.00,,,0.00,Wunderground v.1.15,2013-03-04 04:09:00,
2013-03-03 22:15:00,60.6,41.0,29.83,SSW,207,6.0,19.0,48,0.00,,,0.00,weatherlink.com 1.10,2013-03-04 04:15:00,
2013-03-03 22:20:00,60.5,41.2,29.83,ESE,116,9.0,9.0,49,0.00,,,0.00,Wunderground v.1.15,2013-03-04 04:20:00,
2013-03-03 22:26:00,60.4,41.1,29.83,South,179,8.0,10.0,49,0.00,,,0.00,Wunderground v.1.15,2013-03-04 04:26:00,
2013-03-03 22:32:00,60.2,41.5,29.83,South,174,9.0,11.0,50,0.00,,,0.00,Wunderground v.1.15,2013-03-04 04:32:00,
2013-03-03 22:37:00,60.0,41.3,29.83,South,185,9.0,11.0,50,0.00,,,0.00,Wunderground v.1.15,2013-03-04 04:37:00,
2013-03-03 22:43:00,59.8,41.1,29.83,SSE,167,8.0,12.0,50,0.00,,,0.00,Wunderground v.1.15,2013-03-04 04:43:00,
2013-03-03 22:48:00,59.6,41.4,29.83,SSE,150,8.0,13.0,51,0.00,,,0.00,Wunderground v.1.15,2013-03-04 04:48:00,
2013-03-03 22:54:00,59.4,41.8,29.83,South,190,8.0,15.0,52,0.00,,,0.00,Wunderground v.1.15,2013-03-04 04:54:00,
2013-03-03 23:00:00,59.3,42.2,29.83,SSW,193,9.0,11.0,53,0.00,,,0.00,Wunderground v.1.15,2013-03-04 05:00:00,
2013-03-03 23:01:00,59.3,42.2,29.83,South,190,9.0,11.0,53,0.00,,,0.00,Wunderground v.1.15,2013-03-04 05:01:00,
2013-03-03 23:02:00,59.3,42.2,29.83,South,191,8.0,11.0,53,0.00,,,0.00,Wunderground v.1.15,2013-03-04 05:02:00,
2013-03-03 23:04:00,59.3,42.2,29.83,South,182,8.0,11.0,53,0.00,,,0.00,Wunderground v.1.15,2013-03-04 05:04:00,
2013-03-03 23:09:00,59.2,42.6,29.83,South,172,8.0,13.0,54,0.00,,,0.00,Wunderground v.1.15,2013-03-04 05:09:00,
2013-03-03 23:14:00,59.1,42.5,29.83,South,177,8.0,13.0,54,0.00,,,0.00,Wunderground v.1.15,2013-03-04 05:14:00,
2013-03-03 23:20:00,59.0,42.8,29.82,SSE,155,8.0,16.0,55,0.00,,,0.00,Wunderground v.1.15,2013-03-04 05:20:00,
2013-03-03 23:25:00,58.9,43.2,29.82,SSE,165,9.0,16.0,56,0.00,,,0.00,Wunderground v.1.15,2013-03-04 05:25:00,
2013-03-03 23:30:00,58.8,43.1,29.82,SSE,156,9.0,13.0,56,0.00,,,0.00,Wunderground v.1.15,2013-03-04 05:30:00,
2013-03-03 23:35:00,58.8,43.6,29.82,South,182,9.0,13.0,57,0.00,,,0.00,Wunderground v.1.15,2013-03-04 05:35:00,
2013-03-03 23:41:00,58.8,43.6,29.82,SSW,200,9.0,10.0,57,0.00,,,0.00,Wunderground v.1.15,2013-03-04 05:41:00,
2013-03-03 23:46:00,58.8,44.0,29.82,South,186,9.0,20.0,58,0.00,,,0.00,weatherlink.com 1.10,2013-03-04 05:46:00,
2013-03-03 23:52:00,58.7,44.0,29.82,SW,215,8.0,17.0,58,0.00,,,0.00,Wunderground v.1.15,2013-03-04 05:52:00,
2013-03-03 23:58:00,58.6,43.9,29.81,SSW,200,8.0,17.0,58,0.00,,,0.00,Wunderground v.1.15,2013-03-04 05:58:00,